Погода в Окунево

Россия / Кемеровская область (Кузбасс)     54°57′05″N   85°25′53″E
темп.,
°C
ветер,
м/с
пор.,
м/с
влажн.,
%
обл.,
%
осадки,
мм/ч
давл.,
гПа
погр.,
м
27 февраля, сб
сб2701:00−23юз31093100 0.0 1036790
04:00−24ююз3998100 0.1 1037557
07:00−24юз4997100 0.4 1037541
10:00−23юз5994100 0.1 1037659
13:00−21зюз5890100 0.3 1037832
16:00−20зюз4788100 0.1 1037871
19:00−22зюз2395100 0.1 103852
22:00−25юз2394100 0.0 103921
28 февраля, вс
вс2801:00−27юз239694 0.0 104022
04:00−29ююз229480 0.0 104019
07:00−29ю239347 0.0 104021
10:00−26ююв349346 0.0 1040122
13:00−21юв359269 0.0 1037251
16:00−17юв469493 0.0 1034260
19:00−17юв349396 0.0 103152
22:00−14юв3896100 0.4 1028273
1 марта, пн
пн101:00−12юв3895100 1.1 1025268
04:00−11юв4895100 0.4 1021232
07:00−9юв4896100 1.3 1018327
10:00−7ююв4895100 1.5 1015467
13:00−4ю4795100 2.8 1012523
16:00−2ююз5996100 2.3 1010697
19:00−2ююз51488100 2.8 1009724
22:00−2ююз71587100 0.3 1008666
2 марта, вт
вт201:00−1зюз71294100 0.6 1008626
04:00−4зюз71492100 0.3 1010725
07:00−7зсз31096100 0.6 1013453
10:00−10зюз61093100 0.6 1015634
13:00−11зюз5891100 0.9 1017634
16:00−10з5789100 0.1 1018600
19:00−13зсз2294100 0.2 101820
22:00−15зюз0197100 0.1 101820
3 марта, ср
ср301:00−16в1198100 0.1 101720
04:00−15всв2296100 0.1 101529
07:00−15всв2296100 0.2 101537
10:00−13св2395100 0.3 1015149
13:00−10св2289100 0.6 1015353
16:00−9ссз2291100 0.3 1016338
19:00−12с2395100 0.6 101962
22:00−16св239592 0.1 102257